Wind_Speed
22 22 22 22 22 21 20 21 21 22 22 22 23 23 23 23 23 22 21 20 20 20 20 20 19 19 19 19 19 19 18 18 18 17 17 17 16 16 15 15 14 14 13 13 13 13 13 13 13
23 23 23 24 23 22 22 22 22 21 22 23 24 24 23 23 23 22 22 22 22 22 22 22 22 21 21 21 21 20 20 20 20 19 19 19 18 18 17 17 16 16 15 15 15 14 14 14 15
23 24 24 24 24 23 23 23 23 23 23 24 24 25 24 23 23 23 23 23 23 23 23 23 23 23 22 22 22 22 22 22 22 21 21 20 20 20 20 19 19 18 18 17 16 16 16 15 15
23 24 25 25 24 24 24 24 24 23 23 25 25 25 24 24 24 24 24 24 24 24 24 24 24 23 24 24 24 24 24 23 23 23 23 23 22 21 21 21 20 20 20 19 19 18 18 18 17
24 25 25 25 24 25 25 25 25 24 24 25 26 26 25 25 25 25 25 25 24 24 24 24 24 24 24 24 25 25 25 25 25 25 25 25 25 24 23 23 22 22 21 21 21 20 20 19 19
24 25 25 25 25 26 26 25 25 26 26 26 26 27 26 26 26 26 26 26 25 25 25 25 25 25 25 25 26 26 26 26 26 26 26 27 27 26 26 25 25 24 24 23 23 22 22 21 21
23 24 24 24 25 25 25 25 26 26 27 26 27 28 27 27 27 27 27 27 27 27 27 27 26 26 26 26 26 27 27 27 28 27 27 28 27 27 27 27 26 26 26 26 25 25 24 24 23
23 23 23 23 24 24 24 25 26 26 26 26 27 27 27 28 28 28 28 28 28 28 28 28 28 28 28 28 28 28 28 29 29 29 29 29 29 29 29 29 28 28 27 27 27 27 27 26 26
23 24 23 23 23 23 24 25 25 26 26 26 27 27 28 28 29 30 30 30 30 30 30 30 30 31 30 30 30 30 31 30 31 31 31 31 31 31 31 31 30 30 30 29 29 29 29 28 28
24 24 23 24 24 24 24 25 25 26 26 26 26 28 28 29 30 30 31 31 31 32 32 33 33 33 33 33 33 33 33 33 33 33 33 34 33 33 33 33 33 32 32 32 32 32 32 31 30
25 24 24 24 25 25 25 25 26 26 26 26 27 28 30 30 30 31 32 32 33 33 33 34 34 35 35 35 35 35 35 35 35 35 35 36 36 35 35 35 35 34 34 34 34 34 34 34 34
25 25 26 25 26 26 26 26 27 26 26 27 27 29 30 31 31 32 33 34 34 35 36 36 36 37 37 37 37 37 37 38 38 37 37 37 38 38 37 37 36 36 36 36 36 36 36 36 36
26 26 26 26 27 27 27 27 27 27 27 28 29 30 31 32 32 33 33 34 35 35 36 37 38 39 39 39 39 40 40 40 40 40 40 40 40 39 39 39 39 39 39 38 39 39 39 39 38
27 27 27 27 28 27 28 28 28 27 28 29 30 31 32 33 33 34 34 35 36 36 37 38 39 40 41 41 41 41 41 42 42 42 42 42 42 42 42 42 42 42 42 41 41 41 41 41 41
28 28 28 28 28 28 28 28 27 27 29 30 31 31 32 34 35 36 36 36 37 37 38 38 39 40 41 42 44 44 44 44 44 44 44 44 44 44 44 44 45 45 44 43 43 43 44 43 43
29 29 29 28 29 29 30 27 27 28 29 30 31 32 33 34 35 36 37 37 38 38 38 39 41 41 42 43 45 46 46 46 46 47 46 46 47 46 46 46 46 46 46 46 45 45 46 46 45
30 30 30 29 30 31 31 28 28 29 29 30 31 33 34 35 36 37 38 38 39 39 39 40 42 43 43 44 45 46 47 47 48 48 48 48 49 48 48 48 48 49 49 48 48 47 47 47 47
32 32 31 31 31 32 31 30 29 30 31 30 31 32 34 35 36 38 39 39 40 40 40 40 42 43 44 44 46 46 47 48 49 49 49 50 50 50 50 50 50 51 51 50 50 50 50 50 50
34 34 34 33 33 34 33 32 31 32 32 32 32 33 34 35 36 37 38 39 39 40 40 41 42 44 44 45 46 47 48 48 49 50 51 52 52 52 52 51 52 52 53 52 52 52 52 52 52
36 36 36 36 35 36 35 33 33 33 33 33 33 33 34 35 36 37 38 38 39 40 40 41 42 43 44 45 46 47 48 49 50 51 52 53 54 55 54 53 53 54 54 54 54 53 53 53 54
38 38 38 38 38 38 38 35 33 34 34 34 35 35 35 36 36 37 38 38 39 39 40 41 42 43 44 45 46 47 48 49 51 52 52 53 54 55 55 55 55 55 56 56 55 55 55 55 55
39 39 39 39 40 40 40 40 35 35 35 35 35 36 36 36 37 37 37 38 39 39 40 41 42 43 44 45 47 48 48 48 49 51 52 53 54 55 56 57 56 57 57 57 57 56 56 56 56
41 40 40 41 42 42 41 43 39 37 36 36 36 37 37 37 38 38 37 38 39 39 40 42 42 43 45 46 47 48 48 49 50 52 52 53 55 56 57 57 57 57 57 57 57 57 57 57 57
42 42 43 43 43 44 42 43 42 39 37 37 37 38 38 38 38 38 38 38 40 40 41 42 43 44 45 46 46 48 49 50 51 52 53 54 55 56 56 57 58 58 58 58 57 57 57 57 57
42 42 43 44 45 46 44 44 43 41 39 38 38 38 38 38 38 38 38 39 39 40 41 42 43 44 45 45 46 48 49 50 51 52 54 55 55 55 56 57 57 58 59 59 58 57 57 57 57
42 43 44 45 46 46 45 45 43 41 40 39 38 38 38 38 38 38 38 39 39 40 41 42 43 43 45 46 47 48 49 50 52 53 54 54 55 54 55 56 57 58 58 58 57 57 57 58 57
42 43 43 44 46 47 46 46 42 41 40 40 39 38 38 39 39 39 39 39 40 41 42 42 43 44 45 46 47 49 50 51 52 53 54 54 54 54 54 55 57 57 57 57 57 57 57 57 56
43 42 42 43 45 46 47 45 42 41 40 40 40 40 39 39 39 40 40 40 41 42 42 43 44 44 44 45 46 47 48 50 51 53 54 54 53 53 53 54 55 56 56 56 56 56 56 55 55
42 42 42 43 44 45 46 45 42 41 41 41 40 40 40 40 40 40 40 40 41 41 42 43 43 43 44 44 45 46 48 49 51 52 52 53 53 53 53 53 54 54 54 53 54 54 55 55 55
42 42 41 42 42 44 45 45 42 41 41 41 41 41 41 41 41 41 41 41 41 41 42 43 43 43 44 44 45 46 47 48 48 49 50 50 51 51 50 51 52 53 53 53 54 55 56 55 55
Wind_Direction
244 244 243 242 243 243 243 243 244 244 245 245 245 245 247 249 250 251 251 250 249 249 250 251 251 251 252 253 253 253 253 254 256 257 259 260 262 263 265 267 269 270 271 272 272 270 272 273 275
245 244 244 244 244 244 244 245 246 247 248 246 246 247 247 250 251 251 251 251 250 250 251 251 252 253 253 254 255 255 255 255 256 257 258 259 261 262 263 265 267 268 269 271 272 271 272 274 275
246 244 244 244 245 245 246 246 247 247 248 248 248 248 248 249 249 250 250 251 251 251 251 252 252 253 254 255 255 256 256 256 256 257 258 259 260 262 263 264 265 266 268 270 271 270 272 274 276
246 245 245 246 246 246 246 247 249 249 249 249 250 250 250 250 250 250 250 250 251 252 252 252 252 252 253 254 255 255 256 257 257 257 258 258 259 260 262 263 264 265 266 268 268 269 270 272 273
247 247 247 247 247 248 249 250 250 249 248 248 249 250 250 250 250 250 251 251 251 252 253 253 252 252 252 253 254 255 255 256 257 258 258 258 259 260 260 262 264 265 265 266 267 268 268 269 271
249 248 248 248 248 249 249 250 251 251 249 248 249 250 251 251 252 251 252 253 253 253 253 253 253 253 253 253 254 254 254 255 256 257 258 259 259 260 261 262 263 264 265 266 266 267 267 268 270
250 249 249 249 249 250 251 251 251 253 253 252 251 251 251 252 252 252 253 253 253 254 254 254 254 254 254 255 255 255 255 256 256 257 257 257 258 259 260 261 262 263 264 266 267 267 267 267 269
250 250 249 249 250 250 251 251 252 252 253 253 253 253 253 253 253 254 254 254 254 255 255 255 255 255 256 256 257 257 257 257 257 257 257 258 258 259 260 260 261 262 263 265 267 267 267 268 269
251 251 251 250 250 251 251 252 252 253 254 255 256 256 256 255 255 255 255 255 255 256 256 256 256 257 257 257 257 257 258 258 258 258 258 258 258 259 260 261 262 263 263 264 266 267 268 268 268
253 253 252 251 251 250 250 251 252 254 256 257 258 259 258 257 258 258 258 258 257 257 257 257 257 257 257 257 258 258 259 259 259 259 259 259 259 259 260 261 262 263 264 265 266 267 267 267 268
254 253 252 251 251 251 251 251 253 255 257 258 259 260 260 260 261 261 260 260 259 259 258 258 257 258 258 259 259 259 259 260 260 260 260 260 260 260 261 261 263 264 264 265 266 267 267 268 268
255 254 253 252 252 253 253 253 254 256 257 259 260 261 263 263 262 262 262 262 261 261 260 259 259 259 259 259 259 260 260 261 261 261 261 261 261 261 261 261 262 263 264 265 265 266 267 267 268
256 254 253 252 253 254 254 253 255 257 259 260 261 262 263 264 264 264 264 263 263 262 261 261 260 260 260 260 260 260 260 261 261 261 261 262 262 262 261 262 263 263 264 265 265 265 267 267 267
255 255 253 253 253 255 256 256 257 258 260 261 262 263 265 265 265 266 265 265 265 264 264 263 262 261 261 260 260 260 260 261 261 262 262 263 262 262 262 262 263 263 264 264 265 265 266 266 267
255 254 253 252 253 254 256 258 260 259 261 263 264 265 266 266 267 267 267 267 266 265 265 264 264 263 262 261 261 261 261 261 262 262 262 263 263 263 262 263 263 264 264 264 265 265 266 266 267
253 253 253 253 254 255 258 260 261 261 263 265 266 267 268 268 268 269 269 268 266 265 266 266 266 266 265 263 262 262 262 262 262 262 262 262 263 263 263 263 263 264 264 264 264 265 266 266 266
253 254 254 254 255 256 258 260 262 263 265 266 268 269 270 270 269 269 269 268 267 267 267 267 267 267 267 265 264 263 263 262 262 261 261 261 262 263 263 263 264 264 264 264 264 264 265 266 266
255 254 254 255 255 256 258 260 263 265 266 268 270 272 273 273 271 270 269 268 267 267 268 267 268 268 268 266 265 263 263 263 262 261 261 261 261 262 262 263 264 264 264 264 264 264 264 265 266
254 255 255 256 257 257 258 260 262 265 267 269 271 273 275 275 274 272 270 269 267 268 268 269 269 269 269 267 266 265 263 263 263 262 261 261 261 262 261 262 263 264 264 264 264 264 265 265 266
254 255 257 258 258 259 260 261 262 265 268 270 272 274 275 275 275 273 271 270 270 269 269 270 271 270 270 268 266 265 264 262 263 263 262 262 262 262 262 262 264 264 265 265 265 265 265 265 266
254 256 257 259 259 261 262 261 262 265 268 271 274 275 276 275 275 274 272 271 271 271 271 271 272 271 271 269 267 266 265 264 264 264 264 264 264 264 264 263 264 265 265 265 264 265 265 265 265
255 256 258 259 260 262 263 265 264 266 269 272 275 276 277 276 275 275 274 273 273 273 274 274 274 273 273 271 268 267 267 267 266 266 266 266 265 265 265 264 264 265 265 265 264 264 264 264 264
254 255 257 259 261 262 263 267 267 267 270 272 275 276 277 277 275 275 275 275 275 276 276 275 275 275 275 273 271 269 268 269 268 268 268 268 267 267 267 265 264 265 265 264 264 264 264 264 264
254 255 257 259 261 262 263 267 269 270 272 273 274 275 276 276 276 276 276 276 277 277 278 277 277 277 276 275 273 271 270 270 270 270 270 269 269 268 266 265 264 264 264 264 263 263 264 264 264
255 255 258 260 261 263 264 267 269 272 273 274 274 276 277 278 277 277 277 278 278 277 278 278 278 279 277 276 275 274 271 272 272 271 271 271 270 268 266 264 263 263 264 264 263 263 263 264 264
255 255 258 261 263 264 265 267 269 272 273 274 275 277 278 278 279 279 279 280 279 278 278 279 280 279 279 278 277 276 275 274 274 273 273 272 270 269 268 265 263 263 263 263 263 263 263 263 263
254 256 258 261 263 264 265 267 269 271 273 275 276 277 277 278 279 280 280 281 281 280 279 280 281 281 281 280 279 278 277 276 275 275 274 272 270 269 268 267 264 263 263 263 263 263 262 263 263
256 256 257 259 262 264 265 267 269 271 273 275 276 276 277 278 279 280 281 281 282 282 282 281 283 284 283 282 281 280 278 278 276 274 273 272 270 268 268 266 265 263 262 262 262 262 262 263 263
256 256 257 259 261 264 266 268 270 273 274 275 276 277 278 278 279 279 280 282 282 283 283 283 284 284 284 284 283 281 280 279 277 276 275 273 270 268 267 266 265 264 264 263 262 262 263 263 263
255 257 257 259 261 263 266 268 271 272 273 274 275 276 277 277 278 279 281 282 282 283 284 284 284 284 285 285 284 283 282 281 280 279 277 274 271 269 268 268 267 266 266 265 264 263 263 263 263
Height
5827 5829 5831 5832 5834 5836 5836 5838 5839 5840 5841 5842 5843 5844 5845 5847 5849 5852 5852 5851 5852 5854 5854 5855 5856 5857 5858 5858 5859 5860 5861 5861 5862 5863 5863 5864 5864 5864 5865 5865 5865 5865 5865 5865 5865 5865 5865 5865 5865
5823 5825 5827 5828 5830 5831 5833 5834 5835 5836 5837 5838 5838 5840 5841 5842 5844 5845 5846 5847 5849 5850 5851 5852 5853 5854 5854 5855 5856 5857 5858 5859 5859 5860 5860 5861 5862 5862 5862 5862 5863 5863 5863 5863 5863 5863 5863 5863 5863
5819 5821 5823 5824 5825 5827 5829 5830 5831 5832 5833 5833 5834 5835 5837 5838 5839 5841 5842 5843 5844 5846 5847 5848 5849 5850 5851 5852 5852 5853 5854 5855 5856 5857 5857 5858 5858 5859 5859 5860 5860 5860 5860 5860 5860 5860 5860 5860 5860
5815 5817 5818 5820 5821 5823 5824 5825 5826 5827 5829 5829 5830 5831 5832 5834 5835 5836 5837 5839 5840 5841 5842 5843 5844 5846 5847 5848 5849 5849 5850 5851 5852 5853 5854 5854 5855 5855 5856 5856 5857 5857 5857 5857 5857 5857 5858 5858 5858
5810 5812 5813 5815 5816 5818 5819 5820 5821 5822 5824 5824 5825 5826 5827 5829 5830 5831 5833 5834 5835 5836 5838 5839 5840 5841 5842 5843 5844 5845 5846 5847 5848 5849 5849 5850 5851 5851 5852 5853 5853 5853 5854 5854 5854 5854 5854 5854 5854
5806 5807 5809 5810 5811 5812 5814 5815 5816 5817 5818 5819 5820 5821 5823 5824 5825 5826 5828 5829 5831 5832 5833 5834 5835 5836 5837 5838 5839 5840 5841 5842 5843 5844 5845 5845 5846 5847 5848 5848 5849 5849 5850 5850 5850 5850 5850 5851 5851
5802 5802 5803 5805 5806 5807 5809 5810 5811 5812 5813 5814 5815 5816 5818 5819 5820 5821 5822 5824 5825 5826 5827 5828 5829 5831 5832 5833 5834 5835 5836 5837 5838 5839 5840 5840 5841 5842 5843 5843 5844 5845 5845 5845 5846 5846 5846 5846 5847
5795 5798 5798 5799 5800 5802 5804 5804 5805 5806 5807 5808 5809 5810 5812 5813 5814 5815 5817 5818 5819 5820 5822 5823 5824 5825 5826 5827 5828 5829 5830 5831 5832 5833 5834 5835 5836 5836 5837 5838 5839 5839 5840 5840 5841 5841 5841 5842 5842
5790 5793 5793 5795 5796 5797 5798 5798 5799 5800 5802 5802 5803 5804 5806 5807 5808 5809 5811 5812 5813 5814 5815 5817 5818 5819 5820 5821 5822 5823 5824 5825 5826 5827 5828 5829 5830 5831 5831 5832 5833 5834 5834 5835 5835 5835 5836 5836 5836
5785 5787 5789 5789 5790 5791 5792 5793 5794 5795 5796 5796 5797 5798 5799 5800 5801 5802 5804 5805 5806 5807 5808 5809 5811 5812 5813 5814 5815 5816 5817 5818 5819 5820 5821 5822 5823 5824 5825 5826 5827 5827 5828 5828 5829 5829 5829 5830 5830
5779 5781 5782 5783 5784 5785 5786 5787 5787 5788 5790 5791 5791 5792 5792 5793 5794 5795 5796 5797 5798 5799 5800 5802 5803 5804 5805 5807 5808 5809 5810 5811 5812 5813 5814 5815 5816 5817 5818 5819 5820 5820 5821 5822 5822 5822 5823 5823 5824
5774 5775 5776 5777 5777 5778 5779 5780 5781 5782 5784 5784 5785 5785 5785 5786 5787 5788 5788 5789 5790 5791 5792 5793 5794 5796 5797 5798 5800 5801 5802 5803 5804 5805 5806 5807 5808 5809 5810 5811 5812 5813 5814 5814 5815 5815 5816 5816 5816
5767 5769 5769 5770 5771 5772 5772 5773 5774 5776 5777 5777 5777 5778 5778 5778 5779 5779 5780 5781 5781 5782 5783 5784 5785 5786 5788 5789 5790 5792 5793 5794 5795 5796 5797 5799 5800 5801 5802 5803 5804 5805 5806 5806 5807 5808 5808 5808 5808
5761 5761 5762 5763 5764 5765 5766 5766 5768 5770 5769 5769 5770 5770 5770 5770 5770 5771 5771 5772 5772 5773 5774 5774 5775 5777 5778 5779 5781 5782 5783 5784 5785 5787 5788 5789 5790 5792 5793 5794 5795 5796 5797 5797 5798 5799 5799 5800 5800
5753 5754 5756 5756 5757 5758 5758 5760 5761 5762 5761 5762 5762 5762 5762 5762 5761 5762 5762 5763 5763 5764 5764 5765 5766 5767 5768 5769 5770 5771 5773 5774 5775 5776 5778 5779 5780 5781 5783 5784 5785 5786 5787 5788 5788 5789 5790 5790 5791
5746 5747 5748 5750 5750 5750 5752 5754 5754 5753 5753 5753 5754 5754 5753 5753 5752 5752 5752 5753 5753 5754 5754 5755 5755 5756 5757 5758 5759 5760 5761 5763 5764 5765 5767 5768 5769 5771 5772 5773 5774 5775 5776 5777 5778 5779 5779 5780 5781
5738 5739 5741 5743 5742 5743 5744 5746 5746 5745 5745 5745 5745 5745 5744 5744 5743 5743 5742 5742 5743 5743 5744 5744 5744 5745 5745 5746 5747 5748 5749 5751 5752 5753 5755 5756 5758 5759 5760 5762 5763 5764 5765 5766 5767 5767 5768 5769 5770
5731 5731 5732 5734 5735 5735 5736 5738 5738 5737 5737 5737 5736 5736 5735 5734 5733 5732 5732 5732 5732 5733 5733 5733 5733 5733 5733 5733 5734 5735 5737 5738 5740 5741 5742 5744 5745 5746 5748 5749 5751 5751 5752 5753 5754 5755 5756 5757 5758
5721 5723 5724 5726 5726 5727 5728 5729 5730 5729 5728 5728 5728 5727 5725 5724 5723 5722 5721 5721 5721 5721 5722 5722 5722 5721 5721 5721 5722 5723 5724 5725 5727 5728 5729 5730 5732 5733 5735 5736 5738 5739 5740 5741 5741 5742 5743 5744 5744
5712 5713 5715 5716 5717 5717 5718 5720 5721 5721 5720 5719 5718 5717 5716 5714 5713 5712 5711 5710 5710 5710 5711 5710 5710 5710 5709 5709 5709 5710 5711 5712 5714 5714 5715 5716 5718 5719 5720 5722 5724 5725 5725 5726 5727 5728 5729 5730 5730
5703 5705 5706 5706 5707 5707 5708 5710 5712 5712 5711 5710 5709 5708 5706 5705 5704 5702 5701 5700 5700 5700 5700 5699 5699 5698 5698 5697 5697 5697 5698 5699 5700 5701 5701 5702 5703 5704 5706 5708 5709 5709 5710 5711 5712 5713 5715 5716 5716
5694 5695 5696 5696 5696 5697 5698 5698 5703 5702 5702 5701 5700 5698 5697 5695 5694 5692 5691 5691 5690 5689 5688 5688 5687 5687 5686 5685 5684 5684 5685 5686 5687 5687 5687 5688 5688 5689 5690 5692 5693 5694 5694 5696 5697 5698 5699 5700 5702
5684 5685 5685 5685 5685 5687 5688 5687 5691 5692 5692 5692 5690 5688 5687 5685 5684 5683 5682 5681 5680 5678 5677 5677 5676 5675 5674 5672 5671 5671 5672 5673 5673 5673 5673 5673 5674 5674 5675 5676 5677 5677 5678 5679 5681 5682 5683 5684 5686
5673 5674 5674 5674 5674 5676 5679 5677 5679 5681 5682 5681 5680 5679 5677 5675 5674 5673 5672 5671 5670 5668 5667 5666 5665 5663 5662 5660 5659 5658 5659 5659 5659 5659 5659 5659 5659 5658 5658 5659 5660 5661 5662 5663 5665 5666 5668 5669 5670
5662 5664 5663 5662 5663 5665 5667 5666 5669 5670 5671 5670 5670 5668 5667 5665 5664 5663 5662 5661 5660 5658 5656 5655 5653 5652 5650 5649 5647 5646 5645 5645 5645 5645 5645 5644 5643 5643 5643 5643 5644 5645 5646 5647 5648 5650 5652 5653 5654
5651 5652 5653 5653 5653 5654 5655 5655 5660 5660 5659 5659 5659 5658 5657 5656 5655 5654 5652 5651 5649 5648 5646 5644 5642 5640 5638 5637 5635 5633 5632 5631 5630 5629 5628 5627 5626 5627 5627 5626 5627 5628 5629 5631 5632 5634 5636 5637 5639
5639 5640 5642 5642 5641 5642 5643 5645 5649 5649 5648 5648 5648 5648 5647 5646 5645 5644 5642 5641 5639 5637 5635 5633 5631 5628 5626 5624 5622 5620 5618 5616 5615 5613 5612 5611 5610 5610 5610 5610 5611 5612 5613 5614 5616 5618 5620 5621 5623
5628 5629 5630 5630 5630 5630 5632 5635 5638 5638 5638 5638 5637 5637 5636 5636 5635 5634 5632 5630 5628 5626 5624 5622 5619 5616 5614 5611 5609 5606 5604 5602 5600 5598 5597 5596 5595 5595 5595 5595 5595 5596 5597 5598 5600 5602 5604 5606 5607
5616 5618 5618 5618 5619 5620 5621 5627 5628 5628 5627 5626 5626 5625 5625 5625 5624 5623 5621 5620 5618 5615 5613 5610 5608 5605 5602 5599 5596 5594 5591 5588 5586 5583 5581 5580 5580 5580 5580 5580 5581 5582 5582 5583 5585 5587 5589 5590 5592
5604 5606 5607 5608 5609 5609 5610 5617 5617 5616 5615 5615 5615 5614 5614 5613 5613 5612 5610 5609 5607 5604 5602 5599 5597 5594 5590 5587 5584 5581 5578 5575 5572 5570 5567 5565 5565 5565 5565 5565 5566 5567 5568 5569 5570 5572 5574 5575 5577